#timestamp,LO_Frequency,Hit,StdDev 
1544792415.1,286046994.1,P
1544792435.9,286046992.5,P
1544792455.7,286046991.1,P
1544792475.5,286046989.8,Y
1544792495.4,286046998.0,P
1544792515.2,286046993.5,P
1544792535.1,286046994.2,N
1544792536.0,286046994.2,Y
1544792555.8,286046996.9,P
1544792575.6,286046997.8,N
1544792595.5,286046997.4,N
1544792615.3,286046998.8,N
1544792635.2,286046999.3,N
1544792655.9,286046999.3,N
1544792675.7,286047000.2,N
1544792695.6,286047002.7,N
1544792715.4,286047000.8,N
1544792735.2,286047000.4,N
1544792755.1,286046999.6,N
1544792756.0,286046999.6,N
1544792775.8,286046996.7,N
1544792795.7,286046997.5,N
1544792815.5,286046995.7,N
1544792835.3,286046993.5,Y
1544792855.2,286046996.3,P
1544792875.0,286046996.2,P
1544792875.9,286046996.2,P
1544792895.8,286046995.4,Y
1544792915.6,286047000.3,P
1544792935.4,286046999.9,N
1544792955.3,286046999.5,N
1544792975.1,286046996.2,N
1544792995.8,286046996.1,N
1544793015.7,286046994.3,Y
1544793035.5,286046993.7,P
1544793055.4,286046994.5,N
1544793075.2,286046992.3,P
1544793095.0,286046990.1,Y
1544793095.9,286046990.1,P
1544793115.8,286046996.6,N
1544793135.6,286046997.5,N
1544793155.5,286046998.0,N
1544793175.3,286046998.0,N
1544793195.1,286046995.8,N
1544793215.9,286046993.4,N
1544793235.7,286046993.5,N
1544793255.5,286046993.8,N
1544793275.4,286046994.1,N
1544793295.2,286046994.0,N
1544793315.1,286046994.3,N
1544793316.0,286046994.3,N
1544793335.8,286046994.0,N
1544793355.6,286046994.5,N
1544793375.5,286046993.5,Y
1544793395.3,286047001.3,P
1544793415.2,286047002.0,N
1544793435.9,286047001.5,N
1544793455.7,286046999.9,N
1544793475.6,286047002.2,N
1544793495.4,286047002.7,N
1544793515.2,286047000.6,N
1544793535.1,286047000.8,N
1544793536.0,286047000.8,N
1544793555.8,286047002.5,N
1544793575.7,286047001.7,N
1544793595.5,286047004.0,N
1544793615.3,286047002.5,N
1544793635.2,286047002.7,N
1544793655.0,286047000.5,N
1544793655.9,286047000.5,N
1544793675.7,286046998.3,N
1544793695.6,286046998.8,N
1544793715.4,286046996.7,N
1544793735.3,286046999.6,N
1544793755.1,286046994.9,N
1544793756.0,286046994.9,N
1544793775.8,286046996.2,N
1544793795.7,286046995.9,N
1544793815.5,286046995.0,N
1544793835.3,286046997.2,N
1544793855.2,286046997.0,N
1544793875.0,286046996.9,N
1544793875.9,286046996.9,N
1544793895.8,286046997.6,N
1544793915.6,286046995.0,N
1544793935.4,286046995.5,N
1544793955.3,286046994.9,N
1544793975.1,286046995.9,N
1544793995.9,286046996.4,N
1544794015.7,286046994.3,N
1544794035.5,286046994.2,N
1544794055.4,286046994.7,N
1544794075.2,286046991.9,N
1544794095.0,286046994.1,N
1544794095.9,286046994.1,N
1544794115.8,286046993.7,N
1544794135.6,286046994.4,N
1544794155.5,286046994.4,N
1544794175.3,286046994.1,N
1544794195.1,286046994.0,Y
1544794215.9,286046998.7,P
1544794235.7,286046999.4,N
1544794255.6,286046999.4,N
1544794275.4,286046996.6,N
1544794295.2,286047000.9,N
1544794315.1,286047000.6,N
1544794316.0,286047000.6,N
1544794335.8,286047000.5,N
1544794355.6,286046999.9,N
1544794375.5,286047002.3,N
1544794395.3,286047001.6,N
1544794415.2,286047002.3,N
1544794435.9,286046999.9,N
1544794455.7,286047000.1,N
1544794475.6,286047000.1,N
1544794495.4,286047000.5,N
1544794515.2,286046999.4,N
1544794535.1,286047001.2,N
1544794536.0,286047001.2,N
1544794555.8,286047000.2,N
1544794575.7,286046999.9,N
1544794595.5,286047000.2,N
1544794615.3,286047000.6,N
1544794635.2,286047000.7,N
1544794655.0,286046999.6,N
1544794655.9,286046999.6,N
1544794675.8,286046999.0,N
1544794695.6,286046999.2,N
1544794715.4,286046999.1,N
1544794735.3,286046998.6,N
1544794755.1,286047001.2,N
1544794775.8,286047000.8,N
1544794795.7,286047000.6,N
1544794815.5,286047002.8,N
1544794835.4,286047001.7,N
1544794855.2,286047004.3,Y
1544794875.0,286047003.7,P
1544794875.9,286047003.7,N
1544794895.8,286047001.7,N
1544794915.6,286046999.7,N
1544794935.5,286047003.9,N
1544794955.3,286047005.0,N
1544794975.1,286047007.3,Y
1544794995.9,286047007.3,P
1544795015.7,286047008.1,P
1544795035.5,286047011.6,P
1544795055.4,286047015.8,Y
1544795075.2,286047008.9,P
1544795095.1,286047007.2,P
1544795096.0,286047007.2,P
1544795115.8,286047005.9,Y
1544795135.6,286046994.0,P
1544795155.5,286046991.7,N
1544795175.3,286046992.9,N
1544795195.2,286046990.4,N
1544795215.9,286046991.2,N
1544795235.7,286046990.3,N
1544795255.6,286046990.7,N
1544795275.4,286046988.9,N
1544795295.2,286046991.5,N
1544795315.1,286046992.7,N
1544795316.0,286046992.7,N
1544795335.8,286046988.5,N
1544795355.7,286046988.8,N
1544795375.5,286046989.5,N
1544795395.3,286046991.4,N
1544795415.2,286046988.9,N
1544795435.0,286046988.9,N
1544795435.9,286046988.9,N
1544795455.8,286046990.0,N
1544795475.6,286046987.0,Y
1544795495.4,286046999.2,P
1544795515.3,286046996.9,N
1544795535.1,286046997.3,N
1544795555.8,286046995.5,N
1544795575.7,286046995.2,N
1544795595.5,286046995.0,N
1544795615.4,286046997.9,N
1544795635.2,286046995.4,N
1544795655.0,286046996.1,N
1544795655.9,286046996.1,N
1544795675.8,286046995.7,N
1544795695.6,286046995.9,N
1544795715.5,286046991.7,Y
1544795735.3,286046996.7,P
1544795755.1,286046997.3,P
1544795775.9,286046997.5,P
1544795795.7,286046999.1,N
1544795815.5,286046996.8,Y
1544795835.4,286047000.8,P
1544795855.2,286046998.4,N
1544795875.1,286046999.3,N
1544795876.0,286046999.3,N
1544795895.8,286047000.8,N
1544795915.6,286046996.6,N
1544795935.5,286046998.6,N
1544795955.3,286046998.6,N
1544795975.2,286047000.7,N
1544795995.9,286047000.9,N
